彩虹 28星 (RADUGA 28)

导读

RADUGA 28(彩虹28)是独联体(CIS)发射的军用通信卫星,属于俄罗斯“虹”(Raduga)卫星系列,该系列是苏/俄首个地球同步轨道通信卫星家族。1991年12月19发射入轨,基于KAUR-3平台打造,配备C频段转发器,承担东半球(除极区)军事通信、广播电视与电报电话业务,为俄罗斯国防通信体系提供稳定支撑,现已退役。

基本信息
目录编号:
21821
目录名称:
RADUGA 28
国际标识:
1991-087A
轨道中心:
EARTH
卫星名称:
彩虹 28星
卫星全名:
彩虹 28星 (RADUGA 28)
卫星状态:
在轨 (已飞行12685 天)
发射日期:
1991-12-19 UTC
国别 :
俄罗斯(独联体) (CIS)
星等 :
--
该卫星已列入 空间交会检测服务 Space Conjunction Data Service (SCDS) ,当前飞行风险评估等级: 无高风险
轨道信息
数据来源 国际轨道数据 AOE轨道数据
星历时间 2026-09-11T01:47:58+0800
13小时前
查看轨道信息
2026-09-10T06:00:00+0800
1天前
查看轨道信息
半长轴 42139.181km 42139.181km
偏心率 0.0005317 0.0005308
轨道倾角 13.302° 13.303°
近地点辐角 196.613° 195.655°
升交点赤经 340.430° 340.437°
平近点角 158.191° 221.068°
近地点 35738.638km 35738.676km
远地点 35783.45km 35783.412km
周期 1434.792分钟 1434.792分钟
每日圈数 1.00363 1.00363
详细信息
平衡模式:
三轴稳定
覆盖范围:
全球
运营商:
俄罗斯国家航天集团
运营商所在国:
俄罗斯
制造商(研发单位):
普里克拉德诺伊·梅哈尼基设计局
制造商所在国:
俄罗斯联邦
使用方式:
暂无
卫星简介
彩虹卫星(Raduga, Gran)是苏联用于军事和通信目的的一系列地球静止通信卫星。彩虹卫星旨在支持军事通信、Orbita地面电视网络,并在整个东半球(极地地区除外)提供电话和电报通信。该卫星已退役。
2D轨道图
3D轨道图
轨道高度分析图
轨道倾角分析图
轨道综合分析图
查看轨道综合分析图
与全量物体交会距离演化趋势
与全量物体交会风险概率演化趋势